Time,TemperatureF,DewpointF,PressureIn,WindDirection,WindDirectionDegrees,WindSpeedMPH,WindSpeedGustMPH,Humidity,HourlyPrecipIn,Conditions,Clouds,dailyrainin,SoftwareType,DateUTC
2015-03-04 00:00:00,69.7,67.6,30.15,SE,127,1.0,3.0,93,0.00,,---,0.00,VWS V15.00,2015-03-04 05:00:00,
2015-03-04 00:15:00,70.1,68.0,30.14,SSE,161,1.0,6.0,93,0.00,,---,0.00,VWS V15.00,2015-03-04 05:15:00,
2015-03-04 00:30:00,70.9,68.2,30.14,SSE,155,5.0,7.0,91,0.00,,---,0.00,VWS V15.00,2015-03-04 05:30:00,
2015-03-04 00:45:00,71.4,68.0,30.13,SSE,150,3.0,7.0,89,0.00,,---,0.00,VWS V15.00,2015-03-04 05:45:00,
2015-03-04 01:00:00,71.7,68.0,30.13,SSE,164,4.0,7.0,88,0.00,,---,0.00,VWS V15.00,2015-03-04 06:00:00,
2015-03-04 01:15:00,71.7,67.6,30.13,SSE,152,2.0,9.0,87,0.00,,---,0.00,VWS V15.00,2015-03-04 06:15:00,
2015-03-04 01:30:00,71.9,67.5,30.12,SE,126,3.0,7.0,86,0.00,,---,0.00,VWS V15.00,2015-03-04 06:30:00,
2015-03-04 01:45:00,71.7,67.3,30.12,SE,135,3.0,5.0,86,0.00,,---,0.00,VWS V15.00,2015-03-04 06:45:00,
2015-03-04 02:00:00,71.6,67.5,30.11,South,172,1.0,6.0,87,0.00,,---,0.00,VWS V15.00,2015-03-04 07:00:00,
2015-03-04 02:15:00,71.4,67.3,30.11,SE,136,2.0,5.0,87,0.00,,---,0.00,VWS V15.00,2015-03-04 07:15:00,
2015-03-04 02:30:00,71.2,67.5,30.11,South,178,2.0,5.0,88,0.00,,---,0.00,VWS V15.00,2015-03-04 07:30:00,
2015-03-04 02:45:00,71.1,67.4,30.11,SE,135,1.0,6.0,88,0.00,,---,0.00,VWS V15.00,2015-03-04 07:45:00,
2015-03-04 03:00:00,70.9,67.2,30.10,SSE,163,1.0,3.0,88,0.00,,---,0.00,VWS V15.00,2015-03-04 08:00:00,
2015-03-04 03:15:00,70.7,67.3,30.10,SE,139,1.0,4.0,89,0.00,,---,0.00,VWS V15.00,2015-03-04 08:15:00,
2015-03-04 03:30:00,70.3,66.9,30.10,SSE,152,1.0,4.0,89,0.00,,---,0.00,VWS V15.00,2015-03-04 08:30:00,
2015-03-04 03:45:00,70.1,67.0,30.09,SE,135,1.0,4.0,90,0.00,,---,0.00,VWS V15.00,2015-03-04 08:45:00,
2015-03-04 04:00:00,69.7,66.6,30.10,SE,134,1.0,3.0,90,0.00,,---,0.00,VWS V15.00,2015-03-04 09:00:00,
2015-03-04 04:15:00,69.4,66.7,30.10,SSE,148,1.0,3.0,91,0.00,,---,0.00,VWS V15.00,2015-03-04 09:15:00,
2015-03-04 04:30:00,68.9,66.2,30.10,SE,129,0.0,3.0,91,0.00,,---,0.00,VWS V15.00,2015-03-04 09:30:00,
2015-03-04 04:45:00,68.2,65.5,30.10,SE,129,0.0,1.0,91,0.00,,---,0.00,VWS V15.00,2015-03-04 09:45:00,
2015-03-04 05:00:00,67.4,65.0,30.11,SE,129,0.0,1.0,92,0.00,,---,0.00,VWS V15.00,2015-03-04 10:00:00,
2015-03-04 05:15:00,66.7,64.6,30.11,SE,129,0.0,1.0,93,0.00,,---,0.00,VWS V15.00,2015-03-04 10:15:00,